Location: Aydie
(43.5695°N, 0.1043°W)
Time: 04:53:16
(UTC+00:00)

Landsat 7 - Pass Details

Date: 17 November 2025
Orbit: 680 x 682 km, 97.9° (Epoch: 04 December)

Event Time Altitude Azimuth Distance (km) Brightness Sun altitude
Rises 17:47:08 0° 172° (S) 3,028 7.2 -13.4°
Reaches altitude 10° 17:49:22 10° 174° (S) 2,117 6.4 -13.8°
Maximum altitude 17:53:59 70° 258° (WSW) 727 4.1 -14.6°
Drops below altitude 10° 17:58:39 10° 343° (NNW) 2,132 6.4 -15.4°
Sets 18:00:55 0° 345° (NNW) 3,051 7.2 -15.8°
